Location: Bacharowice
(49.9333°N, 19.5833°E)
Time: 07:52:04
(UTC+00:00)

Cosmos 1908 Rocket - Pass Details

Date: 27 September 2021
Orbit: 605 x 633 km, 82.5° (Epoch: 27 October)

Event Time Altitude Azimuth Distance (km) Brightness Sun altitude
Rises 03:00:51 0° 1° (N) 2,912 7.2 -15.9°
Reaches altitude 10° 03:03:41 10° 19° (NNE) 1,995 6.6 -15.4°
Maximum altitude 03:06:51 19° 65° (ENE) 1,477 6.6 -15.0°
Drops below altitude 10° 03:09:59 10° 112° (ESE) 1,971 7.0 -14.5°
Sets 03:12:45 0° 130° (SE) 2,866 7.5 -14.0°
